Regional Weather Roundup
Issued by NWS

Home | Current Version | Previous Version | Text Only | Print | Product List | Glossary Off
Versions: 1 2 3 4 5 6 7 8 9 10 11 12 13 14 15 16 17 18 19 20 21 22 23 24 25 26 27 28 29 30 31 32 33 34 35 36 37 38 39 40 41 42 43 44 45 46 47 48 49 50

000
ASUS43 KOAX 051810
RWRNE

WEATHER ROUNDUP FOR NEBRASKA
NATIONAL WEATHER SERVICE OMAHA NE
100 PM CDT SUN JUL 05 2015

NOTES: SATELLITE DATA IS BEING USED TO AUGMENT CLOUD COVER ABOVE
       12000 FEET.
       "FAIR" INDICATES FEW OR NO CLOUDS BELOW 12,000 FEET WITH NO
       SIGNIFICANT WEATHER AND/OR OBSTRUCTIONS TO VISIBILITY.

  * THESE STATIONS DO NOT REPORT WEATHER SUCH AS RAIN...SNOW OR FOG.

NEZ001>004-019>022-054>056-051900-
NEBRASKA PANHANDLE

CITY           SKY/WX    TMP DP  RH WIND       PRES   REMARKS
SCOTTSBLUFF    MOSUNNY   90  55  30 W7        29.86F
6HR MIN TEMP:  63; 6HR MAX TEMP:  93;

ALLIANCE       SUNNY     90  60  36 SW12      29.84F
6HR MIN TEMP:  64; 6HR MAX TEMP:  90;

CHADRON        MOSUNNY   89  66  46 N9        29.82R HX  91
6HR MIN TEMP:  62; 6HR MAX TEMP:  91;

KIMBALL          N/A    N/A N/A N/A MISG        N/A
SIDNEY         MOSUNNY   94  53  25 W7        29.90F HX  91
6HR MIN TEMP:  61; 6HR MAX TEMP:  94;

$$

NEZ057>060-069>072-079>082-051900-
SOUTHWEST NEBRASKA

CITY           SKY/WX    TMP DP  RH WIND       PRES   REMARKS
NORTH PLATTE   SUNNY     91  66  43 SE12      29.81F HX  93
6HR MIN TEMP:  72; 6HR MAX TEMP:  91;

IMPERIAL       SUNNY     94  59  31 SE9       29.84S HX  93
6HR MIN TEMP:  70; 6HR MAX TEMP:  94;

LEXINGTON      MOSUNNY   87  69  55 SE13      29.84F HX  91
MCCOOK         SUNNY     94  63  35 S9        29.81F HX  95
6HR MIN TEMP:  77; 6HR MAX TEMP:  95;

OGALLALA       SUNNY     89  62  40 CALM      29.84S
$$

NEZ005>010-023>029-035>040-094-051900-
NORTH CENTRAL NEBRASKA

CITY           SKY/WX    TMP DP  RH WIND       PRES   REMARKS
VALENTINE      MOSUNNY   91  67  44 S16G24    29.77F HX  94
6HR MIN TEMP:  68; 6HR MAX TEMP:  91;

AINSWORTH      SUNNY     88  69  53 S17       29.81S HX  92
BROKEN BOW     SUNNY     87  69  54 S20G26    29.83F HX  91
6HR MIN TEMP:  69; 6HR MAX TEMP:  87;

O`NEILL        SUNNY     83  72  68 S18G24    29.81F
ORD            SUNNY     85  69  58 SE14G24   29.81F
6HR MIN TEMP:  69; 6HR MAX TEMP:  85;

THEDFORD       MOSUNNY   89  67  49 S14       29.83F HX  91
$$

NEZ041-046>049-061>064-073>077-083>087-051900-
SOUTH CENTRAL NEBRASKA

CITY           SKY/WX    TMP DP  RH WIND       PRES   REMARKS
GRAND ISLAND   SUNNY     85  72  65 SE18G25   29.85F HX  91
6HR MIN TEMP:  71; 6HR MAX TEMP:  85;

AURORA         SUNNY     84  73  68 SE20      29.86F HX  90
HASTINGS       SUNNY     86  71  60 SE15G23   29.85F HX  91
6HR MIN TEMP:  71; 6HR MAX TEMP:  87;

HEBRON         SUNNY     88  70  54 S10       29.87F HX  93
HOLDREGE       SUNNY     88  67  48 S15       29.83F HX  91
KEARNEY *      SUNNY     88  70  55 SE17      29.84F HX  92
YORK           MOSUNNY   82  75  78 S14G21    29.87F
$$

NEZ011>018-030>034-042>045-051900-
NORTHEAST NEBRASKA

CITY           SKY/WX    TMP DP  RH WIND       PRES   REMARKS
NORFOLK        PTSUNNY   82  71  69 S18       29.84F
6HR MIN TEMP:  68; 6HR MAX TEMP:  83; 6HR PCP:  0.73;

ALBION         PTSUNNY   79  69  72 S16G23    29.86F
BLAIR          CLOUDY    77  68  72 S13       29.88S
COLUMBUS *     MOSUNNY   81  70  69 S13G21    29.87F
FREMONT        PTSUNNY   79  70  73 SE14      29.88R
TEKAMAH        CLOUDY    80  71  74 S15G22    29.86F
6HR MIN TEMP:  67; 6HR MAX TEMP:  80; 6HR PCP:  0.02;

WAYNE          MOSUNNY   82  73  74 S15G22    29.83F
$$

NEZ050>053-065>068-078-088>093-051900-
SOUTHEAST NEBRASKA

CITY           SKY/WX    TMP DP  RH WIND       PRES   REMARKS
LINCOLN        MOSUNNY   83  72  69 S15G22    29.88F
6HR MIN TEMP:  71; 6HR MAX TEMP:  83;

OMAHA EPPLEY   CLOUDY    80  69  69 S21       29.87F
6HR MIN TEMP:  70; 6HR MAX TEMP:  80;

BEATRICE       PTSUNNY   86  73  64 SE14      29.89F HX  93
FALLS CITY     CLOUDY    88  72  58 S18G24    29.91F HX  94
6HR MIN TEMP:  67; 6HR MAX TEMP:  88;

NEBRASKA CITY  CLOUDY    82  68  61 S14G21    29.91F
PLATTSMOUTH    CLOUDY    80  69  70 SE13      29.90F
$$

NEZ044-045-051>053-067-051900-
OMAHA AREA

CITY           SKY/WX    TMP DP  RH WIND       PRES   REMARKS
OMAHA EPPLEY   CLOUDY    80  69  69 S21       29.87F
6HR MIN TEMP:  70; 6HR MAX TEMP:  80;

BLAIR          CLOUDY    77  68  72 S13       29.88S
FREMONT        PTSUNNY   79  70  73 SE14      29.88R
MILLARD        CLOUDY    79  71  76 SE12G20   29.88F
OFFUTT AFB     CLOUDY    80  71  73 SE17      29.88F
PLATTSMOUTH    CLOUDY    80  69  70 SE13      29.90F
WAHOO          FAIR      78  71  78 SE15G21   29.88S
$$


USA.gov is the U.S. government's official web portal to all federal, state and local government web resources and services.